Location: Unspecified
(0.0000°N, 0.0000°E)
Time: 13:08:46
(UTC+00:00)

N. Korean satellite - Pass Details

Date: 15 September 2017
Orbit: 461 x 516 km, 97.2° (Epoch: 24 September)

Event Time Altitude Azimuth Distance (km) Brightness Sun altitude
Rises 18:47:54 0° 181° (S) 2,599 10.3 -13.2°
Reaches altitude 10° 18:50:04 10° 188° (S) 1,720 9.4 -13.7°
Maximum altitude 18:53:34 41° 259° (W) 753 8.1 -14.6°
Drops below altitude 10° 18:57:06 10° 330° (NNW) 1,730 9.8 -15.5°
Sets 18:59:16 0° 337° (NNW) 2,616 10.6 -16.0°
